Content
SEND FEEDBACK

Daily
Averages
Monthly
Summary
Canada

VANCOUVER, BRITISH COLUMBIA


Home > North America > Canada > British Columbia
Elevation: 2 meters     Latitude: 49 11N     Longitude: 123 10W

WEATHER
 
SELECT A DAY
Number of Records: 255,153;   Date Range: 5/15/97 - 12/26/14
 
SHARE

PRINT THIS DATA

[ ← Previous Day ]
WEATHER ALMANAC - 14 JUNE, 2013
[ Next Day → ]
[ °F ]   °C
Weather ElementAverageHighLow
Temperature13.6 °C18 °C (4:55 pm)10 °C (11:15 pm)
Dewpoint9.2 °C10 °C (1:15 am)8 °C (7:35 am)
Humidity75.7 %94 % (11:15 pm)56 % (4:55 pm)
Barometer1021.3 hPa1023 hPa (12:35 pm)1018.6 hPa (11:35 pm)
Wind Speed11.4 km/h22.2 km/h (6:55 am)
Wind Gust31.5 km/h (12:15 pm)
Weather ElementAverage
Visibility15.9 km
Wind DirectionSSE (159.4 °)

Weather ElementTotal
Precipitation---
Heating Degree Days4.3 (Base 18.3)
Growing Degree Days4 (Base 10)
Averaged from 71 records on 14 June, 2013
WEATHER CONDITIONS BREAKOUT
WIND DIRECTION BREAKOUT
WEATHER BY HOUR - 14 JUNE, 2013
[ °F ]   °C
Local TimeTemperatureDewpointHumidityBarometerVisibilityWind DirectionWind SpeedGust SpeedPrecipitationEventsConditions
12:35 AM12 °C9 °C82 %1021.7 hPa16.1 kmSouth (180°)13 km/hRainLight Rain
12:55 AM12 °C9 °C82 %1021.7 hPa16.1 kmSouth (190°)16.7 km/hClear
1:15 AM12 °C10 °C88 %1021.7 hPa16.1 kmSouth (190°)13 km/hRainLight Rain
1:35 AM12 °C9 °C82 %1021.7 hPa16.1 kmSouth (190°)13 km/hScattered Clouds
1:55 AM12 °C9 °C82 %1021.7 hPa16.1 kmSouth (190°)13 km/hMostly Cloudy
2:15 AM12 °C9 °C82 %1021.7 hPa16.1 kmSouth (190°)11.1 km/hScattered Clouds
2:35 AM12 °C9 °C82 %1021.7 hPa16.1 kmSouth (180°)13 km/hScattered Clouds
2:55 AM12 °C9 °C82 %1021.7 hPa16.1 kmSSW (200°)16.7 km/hScattered Clouds
3:15 AM12 °C9 °C82 %1021.7 hPa16.1 kmSSW (200°)20.4 km/hPartly Cloudy
3:35 AM12 °C9 °C82 %1021.7 hPa16.1 kmSouth (190°)14.8 km/hScattered Clouds
3:55 AM12 °C9 °C82 %1021.7 hPa14.5 kmSouth (190°)14.8 km/hRainLight Rain
4:15 AM12 °C9 °C82 %1021.7 hPa16.1 kmSouth (190°)18.5 km/hScattered Clouds
4:35 AM12 °C9 °C82 %1021.7 hPa16.1 kmSouth (190°)13 km/hPartly Cloudy
4:55 AM11 °C9 °C88 %1021.7 hPa16.1 kmSouth (170°)9.3 km/hMostly Cloudy
5:15 AM11 °C9 °C88 %1022 hPa16.1 kmSouth (190°)20.4 km/hPartly Cloudy
5:35 AM11 °C9 °C88 %1022 hPa14.5 kmSouth (170°)13 km/hPartly Cloudy
5:55 AM11 °C9 °C88 %1022 hPa16.1 kmSouth (190°)20.4 km/hMostly Cloudy
6:15 AM12 °C9 °C82 %1022.4 hPa14.5 kmSouth (190°)16.7 km/h25.9 km/hMostly Cloudy
6:35 AM12 °C9 °C82 %1022.4 hPa16.1 kmSouth (190°)14.8 km/hMostly Cloudy
6:55 AM12 °C9 °C82 %1022.4 hPa16.1 kmSSW (200°)22.2 km/h27.8 km/hMostly Cloudy
7:15 AM13 °C9 °C77 %1022.4 hPa16.1 kmSSW (210°)20.4 km/h27.8 km/hScattered Clouds
7:35 AM13 °C8 °C72 %1022.4 hPa16.1 kmSouth (190°)20.4 km/h27.8 km/hScattered Clouds
7:55 AM13 °C8 °C72 %1022.4 hPa16.1 kmSouth (190°)18.5 km/hPartly Cloudy
8:15 AM14 °C8 °C67 %1022.4 hPa16.1 kmSouth (190°)20.4 km/h27.8 km/hClear
8:35 AM13 °C9 °C77 %1022.4 hPa16.1 kmSouth (170°)9.3 km/h27.8 km/hPartly Cloudy
8:55 AM14 °C9 °C72 %1022.4 hPa16.1 kmSouth (180°)14.8 km/hMostly Cloudy
9:15 AM13 °C9 °C77 %1022.7 hPa16.1 kmSouth (180°)13 km/h29.6 km/hOvercast
9:35 AM14 °C9 °C72 %1022.7 hPa16.1 kmSouth (190°)14.8 km/hOvercast
9:55 AM14 °C9 °C72 %1022.7 hPa16.1 kmSouth (180°)18.5 km/h27.8 km/hOvercast
10:15 AM15 °C10 °C72 %1022.7 hPa16.1 kmSouth (170°)14.8 km/hMostly Cloudy
10:35 AM13 °C10 °C82 %1022.7 hPa16.1 kmSouth (180°)9.3 km/hMostly Cloudy
10:55 AM15 °C10 °C72 %1022.7 hPa16.1 kmSouth (170°)13 km/hScattered Clouds
11:15 AM15 °C10 °C72 %1022.7 hPa16.1 kmSSE (160°)13 km/hPartly Cloudy
11:35 AM15 °C9 °C67 %1022.7 hPa16.1 kmSouth (170°)11.1 km/hPartly Cloudy
11:55 AM15 °C9 °C67 %1022.7 hPa16.1 kmSouth (170°)9.3 km/h25.9 km/hScattered Clouds
12:15 PM15 °C10 °C72 %1022.7 hPa16.1 kmSouth (190°)20.4 km/h31.5 km/hPartly Cloudy
12:35 PM16 °C10 °C68 %1023 hPa16.1 kmSouth (170°)11.1 km/hPartly Cloudy
12:55 PM15 °C10 °C72 %1022.7 hPa16.1 kmSouth (190°)20.4 km/hPartly Cloudy
1:15 PM15 °C10 °C72 %1022.7 hPa16.1 kmSouth (190°)16.7 km/hMostly Cloudy
1:35 PM15 °C10 °C72 %1022.7 hPa14.5 kmSSW (200°)20.4 km/hPartly Cloudy
1:55 PM15 °C10 °C72 %1022.7 hPa16.1 kmSouth (190°)14.8 km/hClear
2:15 PM15 °C10 °C72 %1022.7 hPa16.1 kmSouth (190°)16.7 km/hMostly Cloudy
2:35 PM15 °C10 °C72 %1022.7 hPa16.1 kmSouth (190°)13 km/hOvercast
2:55 PM15 °C10 °C72 %1022.4 hPa16.1 kmSSW (200°)13 km/hMostly Cloudy
3:15 PM16 °C10 °C68 %1022.4 hPa16.1 kmSouth (190°)16.7 km/hMostly Cloudy
3:35 PM17 °C10 °C63 %1022 hPa16.1 kmSSW (200°)13 km/hClear
3:55 PM17 °C10 °C63 %1022 hPa16.1 kmSouth (180°)11.1 km/hClear
4:15 PM17 °C9 °C59 %1021.7 hPa16.1 kmSouth (190°)16.7 km/hClear
4:35 PM17 °C9 °C59 %1021.7 hPa16.1 kmSSW (200°)14.8 km/hClear
4:55 PM18 °C9 °C56 %1021.3 hPa14.5 kmSSW (200°)14.8 km/hClear
5:15 PM18 °C9 °C56 %1021 hPa16.1 kmSouth (170°)7.4 km/hClear
5:35 PM18 °C9 °C56 %1020.7 hPa16.1 kmSSW (200°)11.1 km/hClear
5:55 PM18 °C9 °C56 %1020.7 hPa16.1 kmWest (270°)5.6 km/hClear
6:15 PM15 °C10 °C72 %1020.3 hPa16.1 kmNNW (330°)5.6 km/hClear
6:35 PM15 °C10 °C72 %1020.3 hPa16.1 kmNNW (340°)7.4 km/hClear
6:55 PM15 °C9 °C67 %1020 hPa16.1 kmNNW (340°)9.3 km/hClear
7:15 PM14 °C10 °C77 %1020 hPa16.1 kmNNW (330°)5.6 km/hClear
7:35 PM14 °C9 °C72 %1020 hPa16.1 kmCalmClear
7:55 PM14 °C9 °C72 %1019.6 hPa16.1 kmCalmClear
8:15 PM13 °C9 °C77 %1019.6 hPa16.1 kmCalmRainLight Rain
8:35 PM14 °C9 °C72 %1019.6 hPa16.1 kmCalmClear
8:55 PM14 °C9 °C72 %1019.3 hPa16.1 kmCalmClear
9:15 PM13 °C9 °C77 %1019.3 hPa14.5 kmCalmClear
9:35 PM12 °C9 °C82 %1019.3 hPa16.1 kmCalmClear
9:55 PM12 °C10 °C88 %1019.3 hPa16.1 kmCalmClear
10:15 PM12 °C9 °C82 %1019 hPa16.1 kmCalmClear
10:35 PM11 °C9 °C88 %1019 hPa16.1 kmCalmClear
10:55 PM11 °C9 °C88 %1019 hPa16.1 kmCalmClear
11:15 PM10 °C9 °C94 %1019 hPa16.1 kmCalmClear
11:35 PM10 °C9 °C94 %1018.6 hPa16.1 kmCalmClear
11:55 PM10 °C8 °C87 %1018.6 hPa16.1 kmCalmClear
Hourly data recorded from CZBB, located 0 kilometers away from Vancouver, British Columbia







STORIES FROM OUR PARTNERS